Showing default

COSMOS 2214, 22185

Orbit data source: Space-Track

COSMOS 2214, 22185 is a payload satellite owned by VKS (CIS) in LEO that was launched on Tue, 20 Oct 1992 UTC via a TSIKLON-3 launch vehicle from the Plesetsk Missile And Space Complex (PKMTR). Payload-class satellites include a variety of spacecraft equipped with specific instruments for various scientific and technological missions. These include communications satellites like Starlink; space stations such as the ISS; scientific satellites like the Hubble; Earth observation satellites from companies like Planet Labs, Umbra, and HawkEye 360; GPS; miniature CubeSats for education and research; and military/defense satellites.

Loading next visibility...
Identifier
22185, 1992-068D
Orbit
LEO
Country
Flag of CISCIS
Related business
Manufacturer
NPO PM
Mission
Defense Communications
Bus & Motor
STRELA-3, Unknown motor
Mass
225 kg wet, 225 kg dry
Launch date (UTC)
1992-10-20 (33 years ago)
Launch vehicle
TSIKLON-3
Launch site
Plesetsk Missile And Space Complex (PKMTR)
Object type
Payload
Rocket body
Debris
Shape & HBR
Cyl, 0.8 m
Radar Cross Section
1.257 m², Large (>1 m²)

Expand to show TLE details & history
Last TLE update: 11 hours ago

TLE from 11 hours ago
0 COSMOS 2214
1 22185U 92068D   26036.09803579  .00000032  00000-0  11913-3 0  9994
2 22185  82.5879  77.8121 0009932  92.4423 295.8627 12.61599895532994
Epoch: 2026-02-05T02:21Z
TLE epoch observation values (Epoch: 2026-02-05T02:21:10.292Z)
Latitude
27.98508°
Longitude
-88.79164°
Altitude
1,416.277 km
Speed
7.156 km/s
True Right ascension
05h 27m 01s
True Declination
27° 51' 17"
Sunlit
Object was in full shadow at epoch
Visualization orbit readout
Latitude
Unknown
Longitude
Unknown
Altitude
Unknown
Speed
Unknown
Apparent Right ascension
Unknown
Apparent Declination
Unknown
Sunlit
N/A
Visualization observer readout
Local Sidereal Time
15:18:01
Azimuth
Unknown
Elevation
Unknown
Doppler factor
Unknown
Orbital elements
Apogee altitude
1,421.408 km
Perigee altitude
1,405.93 km
Semi-major axis
7,791.806 km
Eccentricity
0.00099
Inclination
82.5879°
RAAN
77.8121°
Arg. of periapsis
92.4423°
True anomaly
295.76023°
Mean anomaly
295.8627°
Eccentric anomaly
295.81147°
Mean motion
3.15563 °/min
Orbital period
114.08 mins
BSTAR
0.00011913
Loading maneuver chart data...
Computing Atmospheric mass density...
Loading historical data...
Loading historical data...
Loading historical data...
Loading historical data...
Loading historical data...
Loading historical data...
Loading historical data...

Documentation

Showing up to 5 results
|